Wind_Speed
7 8 6 5 4 2 2 1 1 0 2 1 7 14 14 14 14 11 10 12 14 17 18 19 18 18 17 17 18 18 18 18 18 16 16 18 17 16
7 6 6 5 5 6 5 3 3 1 1 3 8 14 12 12 10 12 15 19 22 22 18 16 16 15 16 17 17 17 17 18 18 17 16 16 16 15
7 6 6 4 2 3 3 3 3 4 3 5 10 11 10 12 12 15 18 18 21 18 14 15 16 15 16 17 17 16 16 16 16 16 15 15 15 15
8 6 5 3 2 4 5 6 7 7 6 7 10 14 14 12 13 16 18 17 22 14 14 15 16 16 17 16 15 15 13 12 13 12 13 14 14 14
7 5 5 4 3 4 5 4 5 7 7 7 10 15 15 13 14 16 17 16 17 14 15 16 18 17 17 15 15 16 16 15 13 14 15 17 15 15
6 5 5 5 3 2 2 3 7 9 9 9 11 12 12 12 14 19 23 20 18 12 14 16 21 14 17 16 16 16 15 16 15 17 16 13 14 16
8 6 6 7 5 3 2 3 7 9 10 10 8 9 11 15 17 17 20 19 18 10 19 21 22 17 19 19 16 16 13 14 13 13 12 13 16 16
9 9 6 6 6 5 4 3 7 9 9 4 5 10 12 15 16 15 16 13 7 9 19 26 17 20 21 18 14 12 12 14 12 13 12 14 17 15
11 9 8 9 8 6 4 6 8 8 5 6 8 9 10 8 13 14 12 11 13 21 19 14 19 20 22 8 11 15 14 14 14 13 13 14 15 14
10 10 11 9 8 5 5 7 8 4 4 4 3 5 3 7 9 10 12 14 17 16 10 7 20 22 20 1 8 19 17 15 16 14 13 13 11 12
10 11 12 9 6 5 6 6 4 4 4 3 3 3 3 7 9 12 13 15 10 15 6 17 16 20 14 7 12 22 18 19 18 14 11 10 10 11
11 11 9 6 4 4 4 3 3 4 4 4 6 4 6 8 7 8 13 13 13 8 5 15 15 15 8 6 25 26 21 22 16 12 9 9 10 9
13 12 9 6 3 2 2 3 2 4 4 6 6 7 9 9 8 10 11 12 11 10 15 14 11 12 8 16 16 20 25 20 8 20 14 9 7 8
13 11 9 5 4 4 4 2 2 3 4 6 8 10 10 10 10 10 11 9 9 9 11 10 8 12 12 11 9 22 21 21 12 22 18 14 10 9
10 8 8 7 6 6 5 3 3 3 4 5 8 8 9 9 9 10 9 12 11 9 9 10 10 13 13 13 12 17 20 23 9 25 20 17 15 14
10 7 7 7 8 7 5 5 4 3 3 6 6 7 8 8 10 10 12 15 14 16 12 11 12 14 15 14 16 17 17 13 25 22 21 19 17 14
10 9 9 11 10 8 8 8 7 3 3 4 6 7 7 8 10 11 13 13 15 17 19 17 16 16 14 13 15 12 19 22 24 23 22 23 20 15
13 13 15 14 12 10 9 12 8 3 3 4 6 6 7 8 11 12 12 12 14 17 18 19 21 21 21 13 3 12 18 23 25 24 22 17 20 18
14 15 17 16 13 11 10 11 7 4 3 4 5 6 7 9 12 12 11 12 14 16 16 17 17 16 11 5 12 5 16 24 25 22 22 21 21 23
17 19 17 16 14 12 11 9 6 5 4 5 6 6 7 10 12 11 9 11 14 15 16 16 16 17 14 8 11 23 19 17 20 23 23 24 19 14
20 20 17 16 14 12 10 8 7 6 6 6 6 6 8 11 11 8 9 10 12 13 15 18 17 16 14 11 11 15 23 17 18 17 19 17 13 11
23 21 18 16 14 12 10 10 10 8 7 7 7 7 10 11 9 8 8 10 12 13 15 16 18 18 15 9 16 19 22 24 20 16 11 9 9 6
22 21 20 18 15 13 12 11 10 8 8 8 7 9 11 10 8 6 7 10 11 14 15 18 19 18 18 14 17 21 21 20 24 24 16 11 10 5
Wind_Direction
126 123 119 104 98 95 82 60 152 236 285 316 2 358 3 13 31 21 17 4 354 345 341 337 336 333 330 327 324 322 321 322 326 329 329 317 308 308
140 141 127 110 96 96 84 60 28 346 274 319 338 347 355 359 0 359 353 344 338 335 340 342 342 340 334 330 325 325 320 314 312 317 326 335 324 311
151 159 140 125 86 62 36 18 34 14 319 315 323 344 348 349 344 350 354 355 352 352 350 348 345 344 342 340 337 325 320 323 312 304 310 322 331 327
161 162 157 146 90 54 57 61 58 35 6 330 330 337 339 333 337 344 354 358 357 3 0 356 353 349 347 348 355 2 348 334 339 332 321 321 322 322
158 173 178 170 136 83 64 58 27 9 357 330 319 327 326 333 330 337 344 345 350 345 346 354 349 346 346 343 339 346 342 336 323 325 321 322 323 318
158 165 177 201 205 154 71 11 353 352 347 335 324 326 330 339 334 334 332 339 338 340 337 344 345 343 346 341 335 336 332 345 344 332 320 321 327 324
184 200 216 226 221 217 251 314 335 338 334 334 337 342 339 337 338 332 324 333 337 333 339 339 343 343 344 338 331 329 332 341 342 340 342 335 330 329
195 195 208 208 202 212 235 305 325 324 323 324 327 329 331 338 341 346 340 342 333 324 333 329 343 341 347 348 338 352 345 344 338 336 341 338 346 334
191 198 195 200 207 211 251 305 324 324 308 310 311 321 328 10 355 353 351 338 322 323 329 316 345 342 352 7 24 356 350 345 339 330 335 338 346 346
205 211 216 206 208 234 283 316 332 349 329 332 323 339 340 346 346 342 335 332 332 340 344 303 342 341 353 301 2 356 347 344 339 329 323 336 354 1
215 214 211 206 211 264 307 326 346 3 26 30 14 341 265 331 336 338 355 348 336 327 316 342 333 334 342 338 338 346 348 348 341 330 316 324 334 339
180 183 193 210 236 283 316 328 350 2 3 350 347 349 346 347 347 353 348 346 342 327 320 336 328 350 325 326 334 340 346 351 348 351 340 337 340 330
195 196 199 209 249 278 294 300 326 344 346 345 354 346 348 349 349 343 344 334 330 311 329 336 319 341 319 310 318 337 343 350 8 10 3 357 1 2
203 200 202 216 238 229 231 252 278 299 320 328 336 344 346 347 346 340 343 338 335 325 332 342 326 332 322 308 309 327 341 349 342 348 348 339 326 312
188 196 214 230 226 215 221 227 245 281 321 329 330 336 342 340 342 342 343 346 342 347 346 348 343 336 326 306 301 311 329 338 342 338 337 334 329 322
197 215 235 223 195 199 210 219 239 267 322 336 334 335 338 343 350 354 354 352 350 349 357 1 356 350 332 319 314 308 334 322 331 336 335 329 323 319
207 228 219 194 196 203 209 213 211 232 315 344 344 339 339 346 351 355 350 351 353 351 350 358 360 352 340 316 306 321 328 333 338 337 335 330 324 327
211 218 201 199 199 201 210 199 205 249 315 335 340 340 340 344 347 348 349 351 346 347 347 355 359 357 356 357 11 323 328 334 338 332 332 321 318 329
214 207 202 203 200 206 208 202 216 248 290 312 323 333 336 341 346 344 342 344 343 344 347 353 357 358 341 322 315 342 324 332 331 323 327 320 307 317
214 204 204 199 199 203 199 207 219 230 262 289 309 321 334 341 342 343 341 337 339 342 340 351 353 349 329 307 309 324 349 335 337 324 325 330 327 338
207 201 203 199 200 203 210 214 221 228 252 279 292 307 325 333 337 336 334 335 338 341 333 337 344 346 337 340 325 323 344 357 352 332 324 318 315 325
207 201 201 202 204 210 216 216 215 231 256 267 278 300 317 328 328 332 334 337 338 336 332 335 348 351 354 335 323 326 338 344 350 354 8 7 312 307
202 200 200 202 208 214 210 211 225 244 253 256 275 300 313 319 317 324 326 333 335 335 340 341 346 351 346 339 339 340 342 352 351 350 347 3 355 340
Height
892 892 893 894 893 894 893 893 894 896 893 890 890 889 887 884 882 879 877 875 873 870 867 864 861 858 855 852 849 846 844 841 839 836 833 830 828 826
893 892 894 895 894 894 894 894 893 893 893 891 890 889 887 884 882 879 877 874 871 868 865 862 859 856 854 851 848 845 842 840 837 835 832 830 826 824
892 893 894 896 896 895 894 894 894 893 893 891 890 888 886 884 881 879 876 873 869 866 864 861 858 855 852 849 846 842 840 838 835 832 831 829 826 823
891 892 894 896 896 895 894 894 894 893 892 890 888 886 884 882 880 878 875 872 869 865 863 860 857 853 850 847 844 841 838 835 833 831 829 827 825 823
890 892 894 895 895 894 893 894 893 892 891 889 887 885 883 880 878 876 874 871 868 865 862 859 855 851 848 846 842 840 837 834 832 830 828 825 823 821
889 891 893 893 893 893 893 893 892 891 889 887 885 884 882 879 878 875 870 868 865 863 861 858 854 849 846 843 840 838 836 833 830 828 825 823 821 818
888 890 891 892 892 891 892 892 891 889 887 885 884 883 880 878 876 873 869 866 863 861 858 855 851 847 844 840 838 836 834 832 829 827 824 821 819 816
887 889 889 890 890 889 890 890 889 887 885 884 883 882 879 877 874 871 868 865 862 861 857 852 849 845 841 838 836 834 833 830 828 825 823 820 817 813
885 887 888 888 887 888 889 888 887 885 884 883 882 881 878 876 874 871 869 866 864 859 855 850 847 842 839 836 835 835 832 829 826 823 821 818 815 811
883 884 885 885 886 886 887 886 885 884 882 881 880 879 878 877 874 872 869 865 862 858 855 851 846 841 837 835 835 834 831 827 824 821 819 817 814 811
880 881 882 883 884 885 885 884 884 882 881 881 880 879 877 876 873 870 867 864 860 856 855 853 846 841 837 834 834 832 829 826 822 819 817 815 813 811
877 879 880 882 882 883 883 883 882 882 881 880 879 878 876 874 872 870 867 864 861 856 855 852 846 843 837 834 833 830 827 824 820 818 815 813 811 810
875 876 878 879 880 881 881 881 881 880 880 879 878 877 874 872 871 868 866 863 860 858 855 852 847 844 841 836 831 828 826 822 819 817 815 812 810 809
871 873 875 876 877 878 879 880 880 879 878 878 877 875 873 871 869 867 864 862 859 856 853 851 847 844 841 836 831 826 824 821 819 817 814 811 809 808
869 871 873 874 875 876 877 878 878 877 877 877 875 873 872 870 867 865 862 860 857 854 852 849 845 842 839 836 832 827 823 819 817 815 812 809 807 805
867 869 870 871 873 874 875 875 876 876 876 875 874 873 871 869 867 863 860 857 854 851 849 846 843 840 836 833 830 826 824 822 817 813 810 807 804 803
863 865 867 869 870 872 873 874 875 875 875 874 873 871 870 868 865 862 860 857 854 851 847 844 840 837 834 830 826 824 822 819 815 811 807 803 801 799
858 860 862 865 867 869 870 871 873 873 872 872 871 870 868 866 863 860 858 855 853 850 847 844 839 835 831 827 825 823 820 817 813 809 806 803 797 795
853 855 858 861 863 865 867 869 869 870 870 870 869 867 866 864 862 859 857 854 851 849 846 844 840 838 835 831 824 823 821 815 812 807 804 801 797 792
848 851 854 856 859 861 864 865 866 867 868 868 867 866 864 863 860 858 856 854 852 849 845 842 840 837 836 833 827 819 818 815 811 806 801 797 794 790
842 846 850 852 855 858 860 862 863 864 865 865 864 864 863 861 858 855 854 853 851 849 845 841 839 837 833 830 826 821 814 813 810 806 801 797 793 789
837 842 845 849 851 854 856 858 860 860 861 861 861 861 860 859 856 855 854 851 849 847 844 841 837 834 831 829 826 821 815 809 806 803 801 799 796 792
834 838 842 845 848 850 852 854 856 857 858 858 858 857 857 856 854 853 852 851 849 846 843 839 836 833 831 828 825 820 815 810 805 800 797 796 793 791